[[{"header":{"parameterUnit":"m.s-1","parameterCategory":1,"la1":30.2991,"la2":30.254,"lo1":-89.0895,"lo2":-89.0444,"dy":0.0017,"dx":0.0017,"nx":28,"ny":28,"refTime":"2025-02-03T09:00:00:Z","depth":0,"parameterNumber":2,"parameterNumberName":"U-component_of_WINDS"},"data":[0,0,0,0,0,0,0,0,0,0,0,0,0,0,0,0,0,0,0,0,0,0,0,0,0,0,0,0,0,0,0,0,0,0,0,0,0,0,0,0,0,0,0,0,0,0,0,0,0,0,0,0,0,0,0,0,0,0,-0.4642,-0.4642,0,-0.4688,-0.4689,-0.4689,-0.4705,-0.4705,-0.4705,-0.4705,-0.4755,-0.4756,-0.4758,0,0,0,0,0,0,0,0,0,0,0,0,0,-0.4569,-0.4571,-0.4642,-0.4642,-0.4643,-0.4688,-0.4689,-0.469,-0.4705,-0.4705,-0.4705,-0.4704,-0.4754,-0.4756,-0.4758,0,0,0,0,0,0,0,0,0,0,0,0,0,-0.4607,-0.4571,-0.4642,-0.4656,-0.4658,-0.4688,-0.4689,-0.469,-0.4705,-0.4705,-0.4705,-0.4704,-0.4754,-0.4756,-0.4758,-0.4778,0,0,-0.4765,-0.4766,0,0,0,0,0,0,0,0,-0.4605,-0.461,-0.4653,-0.4655,-0.4657,-0.4691,-0.4682,-0.4719,-0.4705,-0.4687,-0.4705,-0.4704,-0.4734,-0.4738,-0.4747,-0.478,-0.4783,-0.4765,-0.4767,-0.4768,-0.4768,0,0,0,0,0,0,0,-0.4602,-0.4608,-0.466,-0.4654,-0.4656,-0.4661,-0.4666,-0.4689,-0.4712,-0.4689,-0.469,-0.4695,-0.4735,-0.4745,-0.4748,-0.4783,-0.4765,-0.4767,-0.4769,-0.4769,-0.4837,-0.4838,0,0,0,0,0,0,-0.4597,-0.4605,-0.4659,-0.4662,-0.463,-0.4663,-0.4668,-0.468,-0.4711,-0.4716,-0.4695,-0.4696,-0.4741,-0.4746,-0.475,-0.4777,-0.4768,-0.477,-0.4771,-0.4837,-0.4837,-0.4838,0,0,0,0,0,0,-0.4595,-0.4601,-0.4657,-0.4634,-0.4641,-0.4664,-0.4677,-0.4681,-0.4691,-0.4716,-0.4721,-0.4701,-0.4741,-0.4747,-0.4771,-0.4779,-0.4771,-0.4773,-0.4836,-0.4837,-0.4838,-0.4829,0,0,0,0,0,0,-0.4593,-0.4601,-0.4607,-0.4634,-0.4642,-0.4676,-0.4678,-0.4682,-0.4695,-0.4696,-0.4723,-0.4727,-0.4741,-0.4768,-0.4774,-0.4782,-0.4775,-0.4836,-0.4837,-0.4838,-0.4829,-0.4829,-0.483,0,0,0,0,0,-0.459,-0.4603,-0.4608,-0.4614,-0.4651,-0.4676,-0.4681,-0.4696,-0.4695,-0.4703,-0.472,-0.4727,-0.4777,-0.477,-0.4777,-0.4785,-0.4835,-0.4837,-0.4837,-0.4828,-0.4829,-0.483,0,0,0,0,0,0,-0.4578,-0.4607,-0.4612,-0.4634,-0.4652,-0.4679,-0.4689,-0.4696,-0.4716,-0.4716,-0.4735,-0.4741,-0.4764,-0.4777,-0.4769,-0.4808,-0.4807,-0.4809,-0.4798,-0.4798,-0.4799,-0.4795,-0.4776,0,0,0,0,0,-0.4577,-0.4594,-0.4619,-0.4636,-0.4645,-0.4665,-0.4677,-0.4687,-0.4707,-0.4715,-0.4733,-0.4753,-0.4774,-0.4787,-0.4807,-0.4831,-0.4838,-0.4841,-0.4841,-0.4841,-0.4843,-0.4858,-0.486,-0.4841,-0.4841,-0.4841,0,0,-0.4577,-0.4595,-0.4604,-0.4634,-0.4649,-0.4668,-0.4672,-0.469,-0.4704,-0.4718,-0.4742,-0.4756,-0.478,-0.4805,-0.4816,-0.4817,-0.485,-0.4842,-0.4842,-0.4844,-0.4859,-0.4861,-0.4862,-0.4842,-0.4842,-0.4842,0,0,-0.4585,-0.46,-0.4616,-0.4632,-0.4655,-0.4669,-0.4673,-0.4699,-0.4708,-0.4733,-0.4744,-0.4762,-0.4796,-0.4813,-0.4826,-0.4843,-0.485,-0.4849,-0.4851,-0.4866,-0.4867,-0.4869,-0.4875,-0.4878,-0.4851,-0.4851,-0.4851,0,-0.4582,-0.4608,-0.4624,-0.4642,-0.4655,-0.4669,-0.4686,-0.4701,-0.473,-0.4739,-0.4739,-0.4784,-0.4801,-0.483,-0.4834,-0.4844,-0.485,-0.4846,-0.4866,-0.4867,-0.4869,-0.4876,-0.4878,-0.4851,-0.4851,-0.4851,-0.4851,0,-0.4604,-0.4622,-0.4633,-0.466,-0.4674,-0.4692,-0.4711,-0.4725,-0.4734,-0.4748,-0.4774,-0.4795,-0.482,-0.4828,-0.4837,-0.4859,-0.4858,-0.4862,-0.4861,-0.487,-0.4877,-0.4879,-0.485,-0.485,-0.485,-0.485,0,0,-0.4604,-0.4641,-0.4644,-0.4657,-0.4685,-0.47,-0.4719,-0.4743,-0.4755,-0.4775,-0.4792,-0.4822,-0.4826,-0.4841,-0.4852,-0.4865,-0.4878,-0.4867,-0.4868,-0.4869,-0.4905,-0.4902,-0.4904,-0.4884,-0.4884,-0.4885,-0.4903,0,-0.4616,-0.465,-0.4665,-0.4692,-0.471,-0.4724,-0.4741,-0.476,-0.4775,-0.4793,-0.4809,-0.483,-0.4833,-0.4843,-0.4856,-0.4874,-0.4886,-0.4873,-0.4901,-0.4902,-0.4894,-0.4908,-0.4905,-0.4921,-0.4905,-0.4906,-0.4906,0,-0.4635,-0.4654,-0.4683,-0.4709,-0.4718,-0.4732,-0.4757,-0.4774,-0.4797,-0.4807,-0.4824,-0.4835,-0.4858,-0.4856,-0.4888,-0.4879,-0.4892,-0.4903,-0.4904,-0.4907,-0.4904,-0.4912,-0.4926,-0.4928,-0.491,-0.491,-0.491,0,-0.4633,-0.4667,-0.4688,-0.4699,-0.473,-0.4741,-0.4754,-0.4777,-0.4791,-0.4813,-0.4823,-0.4847,-0.486,-0.488,-0.4898,-0.4895,-0.4929,-0.4928,-0.4938,-0.4938,-0.4944,-0.4943,-0.4961,-0.4952,-0.4952,-0.4952,-0.4952,0,-0.4645,-0.4662,-0.4688,-0.4701,-0.4722,-0.474,-0.476,-0.4775,-0.4795,-0.4813,-0.4827,-0.4844,-0.4867,-0.4887,-0.4902,-0.4927,-0.4933,-0.4942,-0.4946,-0.4941,-0.4939,-0.4949,-0.4948,-0.4953,-0.4953,-0.4953,-0.4953,0,-0.4645,-0.4664,-0.4688,-0.4716,-0.4724,-0.4738,-0.4762,-0.4777,-0.4792,-0.4814,-0.4821,-0.4845,-0.487,-0.489,-0.4923,-0.4933,-0.4959,-0.4963,-0.495,-0.4952,-0.4961,-0.496,-0.4986,-0.499,-0.4978,-0.4978,-0.4978,0,-0.4652,-0.4665,-0.4695,-0.4707,-0.472,-0.474,-0.4755,-0.4774,-0.4789,-0.4817,-0.4828,-0.4854,-0.4875,-0.4914,-0.4935,-0.4961,-0.4966,-0.4973,-0.497,-0.4965,-0.4967,-0.4966,-0.4968,-0.4973,-0.4973,-0.4973,-0.4973,0,-0.4661,-0.467,-0.4689,-0.4713,-0.4729,-0.4749,-0.4769,-0.4779,-0.4802,-0.4818,-0.4843,-0.4859,-0.4893,-0.4918,-0.4946,-0.4962,-0.4972,-0.4975,-0.4978,-0.4973,-0.4966,-0.497,-0.4951,-0.4974,-0.4974,-0.4974,-0.4974,-0.4974,-0.4665,-0.4678,-0.4701,-0.4723,-0.474,-0.4759,-0.4774,-0.4791,-0.4812,-0.484,-0.4851,-0.4876,-0.4901,-0.494,-0.4956,-0.4977,-0.4979,-0.4984,-0.4985,-0.4986,-0.4986,-0.4962,-0.4982,-0.4983,-0.4983,-0.4983,-0.4983,0,-0.4676,-0.4692,-0.4712,-0.4739,-0.4757,-0.4764,-0.4787,-0.4802,-0.4824,-0.4845,-0.4866,-0.4896,-0.4921,-0.4945,-0.4972,-0.4985,-0.499,-0.4991,-0.499,-0.4994,-0.4983,-0.4977,-0.4986,-0.4986,-0.4986,-0.4986,-0.4986,-0.4986,-0.4684,-0.4706,-0.4718,-0.475,-0.4766,-0.479,-0.4803,-0.4821,-0.4838,-0.487,-0.4891,-0.4906,-0.493,-0.4959,-0.4983,-0.499,-0.4999,-0.4999,-0.5007,-0.4995,-0.4995,-0.4994,-0.4989,-0.5001,-0.5001,-0.5017,-0.5017,-0.5017]},{"header":{"parameterUnit":"m.s-1","parameterCategory":1,"la1":30.2991,"la2":30.254,"lo1":-89.0895,"lo2":-89.0444,"dy":0.0017,"dx":0.0017,"nx":28,"ny":28,"refTime":"2025-02-03T09:00:00:Z","depth":0,"parameterNumber":3,"parameterNumberName":"V-component_of_WINDS"},"data":[0,0,0,0,0,0,0,0,0,0,0,0,0,0,0,0,0,0,0,0,0,0,0,0,0,0,0,0,0,0,0,0,0,0,0,0,0,0,0,0,0,0,0,0,0,0,0,0,0,0,0,0,0,0,0,0,0,0,0.883,0.8831,0,0.8911,0.8912,0.8913,0.8944,0.8944,0.8943,0.8943,0.9029,0.9031,0.9034,0,0,0,0,0,0,0,0,0,0,0,0,0,0.8705,0.8707,0.883,0.8831,0.8832,0.8911,0.8912,0.8913,0.8944,0.8944,0.8943,0.8943,0.9028,0.9031,0.9034,0,0,0,0,0,0,0,0,0,0,0,0,0,0.877,0.8708,0.883,0.8857,0.886,0.8911,0.8912,0.8913,0.8944,0.8944,0.8943,0.8943,0.9027,0.9031,0.9034,0.9065,0,0,0.9046,0.9047,0,0,0,0,0,0,0,0,0.8766,0.8774,0.8852,0.8855,0.8859,0.8917,0.8899,0.8964,0.8944,0.8912,0.8943,0.8943,0.8992,0.8999,0.9015,0.9069,0.9072,0.9046,0.9048,0.905,0.9051,0,0,0,0,0,0,0,0.8762,0.8771,0.8862,0.8853,0.8857,0.8866,0.8875,0.8912,0.8953,0.8915,0.8917,0.8926,0.8994,0.9011,0.9017,0.9074,0.9046,0.9049,0.9052,0.9053,0.9159,0.9159,0,0,0,0,0,0,0.8752,0.8767,0.886,0.8865,0.881,0.8868,0.8878,0.8899,0.8953,0.8961,0.8927,0.8928,0.9005,0.9012,0.902,0.9061,0.905,0.9053,0.9056,0.9158,0.9159,0.9159,0,0,0,0,0,0,0.8749,0.876,0.8856,0.8817,0.8829,0.8871,0.8894,0.89,0.8918,0.8962,0.897,0.8936,0.9005,0.9015,0.9054,0.9064,0.9055,0.9059,0.9157,0.9158,0.9159,0.9141,0,0,0,0,0,0,0.8746,0.8759,0.877,0.8817,0.8831,0.8887,0.8894,0.8902,0.8924,0.8926,0.8973,0.898,0.9005,0.9048,0.9057,0.9069,0.9061,0.9157,0.9158,0.9159,0.9141,0.9141,0.9141,0,0,0,0,0,0.8741,0.8762,0.8771,0.8782,0.8846,0.8888,0.8897,0.8924,0.8924,0.8937,0.8965,0.8979,0.9061,0.9052,0.9063,0.9075,0.9156,0.9157,0.9159,0.9141,0.9141,0.9141,0,0,0,0,0,0,0.8716,0.8769,0.8779,0.8815,0.8847,0.8893,0.8909,0.8923,0.8956,0.8957,0.899,0.9001,0.9037,0.906,0.9049,0.9108,0.911,0.9113,0.9092,0.9093,0.9093,0.9087,0.9065,0,0,0,0,0,0.8715,0.8744,0.8788,0.8816,0.8831,0.8867,0.8887,0.8905,0.894,0.8954,0.8985,0.9019,0.9052,0.9074,0.9107,0.9144,0.9156,0.9158,0.9158,0.9158,0.9161,0.9184,0.9186,0.9163,0.9163,0.9163,0,0,0.8713,0.8745,0.8761,0.8812,0.8839,0.8869,0.8879,0.891,0.8933,0.8959,0.8997,0.9021,0.9061,0.91,0.9118,0.912,0.917,0.916,0.916,0.9163,0.9186,0.9188,0.919,0.9164,0.9164,0.9164,0,0,0.8724,0.8751,0.8778,0.8804,0.8844,0.8869,0.8875,0.8919,0.8936,0.8975,0.8996,0.9024,0.9081,0.9109,0.9131,0.9153,0.9168,0.9163,0.9165,0.9187,0.9188,0.919,0.92,0.9202,0.9166,0.9166,0.9166,0,0.8717,0.8762,0.879,0.882,0.8842,0.8866,0.8895,0.8919,0.8969,0.8984,0.8985,0.9058,0.9086,0.9132,0.9138,0.9154,0.9163,0.9158,0.9186,0.9188,0.919,0.9199,0.9203,0.9165,0.9165,0.9165,0.9165,0,0.8751,0.8782,0.8799,0.8846,0.887,0.8899,0.8932,0.8954,0.897,0.8994,0.9035,0.907,0.9111,0.9123,0.914,0.9172,0.9172,0.9179,0.9181,0.9191,0.92,0.9204,0.9164,0.9164,0.9165,0.9165,0,0,0.875,0.8811,0.8817,0.8839,0.8886,0.8911,0.8941,0.8981,0.9,0.9033,0.906,0.9108,0.9115,0.914,0.916,0.9178,0.9196,0.9183,0.9185,0.9185,0.9235,0.9231,0.9234,0.9205,0.9206,0.9207,0.9232,0,0.8768,0.8823,0.8849,0.8893,0.8923,0.8947,0.8974,0.9006,0.903,0.9059,0.9086,0.912,0.9125,0.9141,0.916,0.919,0.9207,0.9188,0.9233,0.9234,0.9223,0.9239,0.9234,0.9256,0.9236,0.9237,0.9237,0,0.8797,0.883,0.8876,0.892,0.8934,0.8958,0.8997,0.9024,0.9062,0.9078,0.9106,0.9125,0.916,0.9158,0.9207,0.9194,0.9214,0.9231,0.9233,0.9239,0.9237,0.9247,0.9264,0.9268,0.9243,0.9243,0.9242,0,0.8792,0.8848,0.8884,0.8902,0.8954,0.897,0.8992,0.9029,0.9052,0.9087,0.9102,0.914,0.9161,0.9191,0.9221,0.9217,0.9267,0.9268,0.9283,0.9282,0.9293,0.9292,0.9315,0.9304,0.9304,0.9304,0.9304,0,0.8811,0.8839,0.8883,0.8905,0.8937,0.8968,0.8999,0.9024,0.9057,0.9085,0.9107,0.9134,0.9171,0.9202,0.9225,0.9263,0.9272,0.9287,0.9293,0.9286,0.9284,0.93,0.93,0.9305,0.9304,0.9304,0.9304,0,0.8811,0.8842,0.8882,0.8928,0.894,0.8962,0.9002,0.9025,0.905,0.9085,0.9095,0.9135,0.9173,0.9205,0.9255,0.9271,0.931,0.9317,0.9297,0.9301,0.9314,0.9313,0.9349,0.9356,0.9339,0.9339,0.9339,0,0.8822,0.8844,0.8892,0.8912,0.8934,0.8966,0.8989,0.902,0.9044,0.9089,0.9106,0.9146,0.9179,0.9239,0.9273,0.9311,0.932,0.933,0.9326,0.9318,0.9322,0.932,0.9324,0.933,0.933,0.933,0.933,0,0.8837,0.8851,0.8883,0.8921,0.8948,0.8979,0.9011,0.9026,0.9064,0.9089,0.9128,0.9154,0.9205,0.9244,0.9287,0.9311,0.9328,0.9331,0.9337,0.933,0.9318,0.9326,0.9299,0.9331,0.9331,0.9331,0.9331,0.9331,0.8844,0.8865,0.8902,0.8937,0.8965,0.8994,0.9018,0.9046,0.9079,0.9123,0.9139,0.9179,0.9218,0.9276,0.9301,0.9333,0.9336,0.9344,0.9346,0.9348,0.9347,0.9312,0.9341,0.9341,0.9341,0.9341,0.9341,0,0.8861,0.8886,0.8918,0.8962,0.8991,0.9002,0.9039,0.9062,0.9097,0.9131,0.9163,0.9208,0.9247,0.9284,0.9324,0.9344,0.9352,0.9353,0.9353,0.9359,0.9342,0.9334,0.9346,0.9346,0.9346,0.9346,0.9346,0.9346,0.8874,0.891,0.8929,0.898,0.9006,0.9044,0.9064,0.9092,0.912,0.9169,0.9201,0.9224,0.926,0.9304,0.934,0.935,0.9365,0.9364,0.9376,0.936,0.936,0.9359,0.9351,0.9367,0.9367,0.9391,0.9391,0.9391]}]]